Time,TemperatureF,DewpointF,PressureIn,WindDirection,WindDirectionDegrees,WindSpeedMPH,WindSpeedGustMPH,Humidity,HourlyPrecipIn,Conditions,Clouds,dailyrainin,SoftwareType,DateUTC
2013-01-26 00:03:00,2.6,-3.2,30.34,NNW,327,1.0,1.0,76,0.00,,,0.00,Wunderground v.1.15,2013-01-26 06:03:00,
2013-01-26 00:09:00,2.6,-3.2,30.34,NNW,327,0.0,2.0,76,0.00,,,0.00,Wunderground v.1.15,2013-01-26 06:09:00,
2013-01-26 00:15:00,2.2,-3.6,30.34,NNW,327,0.0,1.0,76,0.00,,,0.00,Wunderground v.1.15,2013-01-26 06:15:00,
2013-01-26 00:20:00,1.8,-4.0,30.34,NNW,327,0.0,1.0,76,0.00,,,0.00,Wunderground v.1.15,2013-01-26 06:20:00,
2013-01-26 00:26:00,1.6,-4.2,30.33,NW,326,0.0,0.0,76,0.00,,,0.00,Wunderground v.1.15,2013-01-26 06:26:00,
2013-01-26 00:31:00,1.6,-3.9,30.33,NW,326,0.0,0.0,77,0.00,,,0.00,Wunderground v.1.15,2013-01-26 06:31:00,
2013-01-26 00:37:00,1.6,-3.9,30.33,NW,326,0.0,0.0,77,0.00,,,0.00,Wunderground v.1.15,2013-01-26 06:37:00,
2013-01-26 00:42:00,1.6,-3.9,30.34,NNW,327,0.0,0.0,77,0.00,,,0.00,Wunderground v.1.15,2013-01-26 06:42:00,
2013-01-26 00:48:00,1.6,-3.7,30.33,NNW,327,0.0,0.0,78,0.00,,,0.00,Wunderground v.1.15,2013-01-26 06:48:00,
2013-01-26 00:53:00,1.5,-3.8,30.34,NNW,327,0.0,0.0,78,0.00,,,0.00,Wunderground v.1.15,2013-01-26 06:53:00,
2013-01-26 00:59:00,1.3,-4.0,30.34,NNW,327,0.0,0.0,78,0.00,,,0.00,Wunderground v.1.15,2013-01-26 06:59:00,
2013-01-26 01:05:00,1.2,-4.1,30.35,NNW,327,0.0,0.0,78,0.00,,,0.00,Wunderground v.1.15,2013-01-26 07:05:00,
2013-01-26 01:11:00,1.2,-4.1,30.35,NNW,327,0.0,0.0,78,0.00,,,0.00,Wunderground v.1.15,2013-01-26 07:11:00,
2013-01-26 01:16:00,1.2,-4.1,30.34,NNW,327,0.0,0.0,78,0.00,,,0.00,Wunderground v.1.15,2013-01-26 07:16:00,
2013-01-26 01:22:00,1.4,-3.6,30.34,NW,326,0.0,0.0,79,0.00,,,0.00,Wunderground v.1.15,2013-01-26 07:22:00,
2013-01-26 01:27:00,1.6,-3.7,30.34,NNW,327,1.0,3.0,78,0.00,,,0.00,Wunderground v.1.15,2013-01-26 07:27:00,
2013-01-26 01:32:00,1.5,-3.8,30.35,NNW,327,1.0,3.0,78,0.00,,,0.00,Wunderground v.1.15,2013-01-26 07:32:00,
2013-01-26 01:38:00,1.4,-3.9,30.35,NW,326,0.0,3.0,78,0.00,,,0.00,Wunderground v.1.15,2013-01-26 07:38:00,
2013-01-26 01:43:00,1.1,-4.2,30.35,NNW,327,0.0,0.0,78,0.00,,,0.00,Wunderground v.1.15,2013-01-26 07:43:00,
2013-01-26 01:49:00,0.9,-4.4,30.35,NW,326,0.0,0.0,78,0.00,,,0.00,Wunderground v.1.15,2013-01-26 07:49:00,
2013-01-26 01:54:00,0.9,-4.4,30.35,NNW,327,0.0,0.0,78,0.00,,,0.00,Wunderground v.1.15,2013-01-26 07:54:00,
2013-01-26 01:59:00,0.8,-4.5,30.35,NW,326,0.0,0.0,78,0.00,,,0.00,Wunderground v.1.15,2013-01-26 07:59:00,
2013-01-26 02:04:00,0.6,-4.6,30.35,NW,326,0.0,0.0,78,0.00,,,0.00,Wunderground v.1.15,2013-01-26 08:04:00,
2013-01-26 02:09:00,0.4,-4.8,30.36,NW,326,0.0,0.0,78,0.00,,,0.00,Wunderground v.1.15,2013-01-26 08:09:00,
2013-01-26 02:14:00,0.3,-4.9,30.36,NNW,327,0.0,0.0,78,0.00,,,0.00,Wunderground v.1.15,2013-01-26 08:14:00,
2013-01-26 02:19:00,0.1,-5.1,30.36,NNW,327,0.0,0.0,78,0.00,,,0.00,Wunderground v.1.15,2013-01-26 08:19:00,
2013-01-26 02:24:00,0.0,-5.2,30.36,NNW,327,0.0,0.0,78,0.00,,,0.00,Wunderground v.1.15,2013-01-26 08:24:00,
2013-01-26 02:29:00,-0.2,-5.2,30.36,NNW,327,0.0,0.0,79,0.00,,,0.00,Wunderground v.1.15,2013-01-26 08:29:00,
2013-01-26 02:34:00,-0.4,-5.4,30.37,NNW,327,0.0,0.0,79,0.00,,,0.00,Wunderground v.1.15,2013-01-26 08:34:00,
2013-01-26 02:39:00,-0.5,-5.5,30.37,NNW,327,0.0,0.0,79,0.00,,,0.00,Wunderground v.1.15,2013-01-26 08:39:00,
2013-01-26 02:44:00,-0.4,-5.4,30.36,NNW,327,0.0,0.0,79,0.00,,,0.00,Wunderground v.1.15,2013-01-26 08:44:00,
2013-01-26 02:49:00,-0.3,-5.3,30.36,NW,326,0.0,0.0,79,0.00,,,0.00,Wunderground v.1.15,2013-01-26 08:49:00,
2013-01-26 02:54:00,0.0,-4.7,30.36,NW,326,0.0,1.0,80,0.00,,,0.00,Wunderground v.1.15,2013-01-26 08:54:00,
2013-01-26 02:59:00,0.1,-4.6,30.36,NNW,327,0.0,2.0,80,0.00,,,0.00,Wunderground v.1.15,2013-01-26 08:59:00,
2013-01-26 03:04:00,0.4,-4.3,30.36,NNW,327,0.0,1.0,80,0.00,,,0.00,Wunderground v.1.15,2013-01-26 09:04:00,
2013-01-26 03:09:00,0.5,-4.5,30.35,NNW,327,0.0,1.0,79,0.00,,,0.00,Wunderground v.1.15,2013-01-26 09:09:00,
2013-01-26 03:14:00,0.5,-4.5,30.35,NNW,327,0.0,0.0,79,0.00,,,0.00,Wunderground v.1.15,2013-01-26 09:14:00,
2013-01-26 03:19:00,0.6,-4.4,30.35,NW,326,3.0,5.0,79,0.00,,,0.00,Wunderground v.1.15,2013-01-26 09:19:00,
2013-01-26 03:24:00,0.6,-4.4,30.35,NW,326,3.0,4.0,79,0.00,,,0.00,Wunderground v.1.15,2013-01-26 09:24:00,
2013-01-26 03:29:00,0.6,-4.4,30.35,NNW,327,0.0,4.0,79,0.00,,,0.00,Wunderground v.1.15,2013-01-26 09:29:00,
2013-01-26 03:34:00,0.5,-4.5,30.35,NNW,327,0.0,1.0,79,0.00,,,0.00,Wunderground v.1.15,2013-01-26 09:34:00,
2013-01-26 03:39:00,0.4,-4.6,30.34,NNW,327,0.0,1.0,79,0.00,,,0.00,Wunderground v.1.15,2013-01-26 09:39:00,
2013-01-26 03:44:00,0.3,-4.7,30.34,NNW,327,0.0,0.0,79,0.00,,,0.00,Wunderground v.1.15,2013-01-26 09:44:00,
2013-01-26 03:49:00,0.2,-4.8,30.34,NNW,327,0.0,0.0,79,0.00,,,0.00,Wunderground v.1.15,2013-01-26 09:49:00,
2013-01-26 03:54:00,0.2,-4.8,30.34,NW,326,0.0,0.0,79,0.00,,,0.00,Wunderground v.1.15,2013-01-26 09:54:00,
2013-01-26 03:59:00,0.2,-4.5,30.34,NW,326,0.0,0.0,80,0.00,,,0.00,Wunderground v.1.15,2013-01-26 09:59:00,
2013-01-26 04:04:00,0.2,-4.5,30.34,NNW,327,0.0,0.0,80,0.00,,,0.00,Wunderground v.1.15,2013-01-26 10:04:00,
2013-01-26 04:09:00,0.2,-4.5,30.34,NNW,327,0.0,0.0,80,0.00,,,0.00,Wunderground v.1.15,2013-01-26 10:09:00,
2013-01-26 04:14:00,0.2,-4.5,30.34,NNW,327,0.0,0.0,80,0.00,,,0.00,Wunderground v.1.15,2013-01-26 10:14:00,
2013-01-26 04:19:00,0.2,-4.5,30.33,NNW,327,0.0,0.0,80,0.00,,,0.00,Wunderground v.1.15,2013-01-26 10:19:00,
2013-01-26 04:24:00,0.3,-4.4,30.33,NW,326,0.0,0.0,80,0.00,,,0.00,Wunderground v.1.15,2013-01-26 10:24:00,
2013-01-26 04:30:00,0.3,-4.4,30.33,NNW,327,0.0,0.0,80,0.00,,,0.00,Wunderground v.1.15,2013-01-26 10:30:00,
2013-01-26 04:35:00,0.4,-4.3,30.33,NNW,327,0.0,0.0,80,0.00,,,0.00,Wunderground v.1.15,2013-01-26 10:35:00,
2013-01-26 04:40:00,0.5,-4.2,30.33,NW,326,1.0,4.0,80,0.00,,,0.00,Wunderground v.1.15,2013-01-26 10:40:00,
2013-01-26 04:45:00,0.5,-4.5,30.33,NNW,327,0.0,2.0,79,0.00,,,0.00,Wunderground v.1.15,2013-01-26 10:45:00,
2013-01-26 04:50:00,0.5,-4.5,30.34,NW,326,0.0,2.0,79,0.00,,,0.00,Wunderground v.1.15,2013-01-26 10:50:00,
2013-01-26 04:55:00,0.5,-4.5,30.34,NW,326,0.0,0.0,79,0.00,,,0.00,Wunderground v.1.15,2013-01-26 10:55:00,
2013-01-26 05:00:00,0.4,-4.6,30.34,NW,326,0.0,0.0,79,0.00,,,0.00,Wunderground v.1.15,2013-01-26 11:00:00,
2013-01-26 05:05:00,0.2,-4.8,30.34,NNW,327,0.0,0.0,79,0.00,,,0.00,Wunderground v.1.15,2013-01-26 11:05:00,
2013-01-26 05:10:00,0.1,-4.9,30.34,NNW,327,0.0,0.0,79,0.00,,,0.00,Wunderground v.1.15,2013-01-26 11:10:00,
2013-01-26 05:15:00,0.1,-4.6,30.34,NNW,327,0.0,0.0,80,0.00,,,0.00,Wunderground v.1.15,2013-01-26 11:15:00,
2013-01-26 05:20:00,0.0,-4.7,30.34,NNW,327,0.0,0.0,80,0.00,,,0.00,Wunderground v.1.15,2013-01-26 11:20:00,
2013-01-26 05:25:00,-0.1,-4.8,30.34,NNW,327,0.0,0.0,80,0.00,,,0.00,Wunderground v.1.15,2013-01-26 11:25:00,
2013-01-26 05:30:00,-0.1,-4.8,30.34,NNW,327,0.0,0.0,80,0.00,,,0.00,Wunderground v.1.15,2013-01-26 11:30:00,
2013-01-26 05:35:00,0.0,-4.7,30.34,NW,326,0.0,0.0,80,0.00,,,0.00,Wunderground v.1.15,2013-01-26 11:35:00,
2013-01-26 05:40:00,0.1,-4.6,30.34,NNW,327,0.0,0.0,80,0.00,,,0.00,Wunderground v.1.15,2013-01-26 11:40:00,
2013-01-26 05:45:00,0.1,-4.6,30.34,NW,326,0.0,0.0,80,0.00,,,0.00,Wunderground v.1.15,2013-01-26 11:45:00,
2013-01-26 05:50:00,0.2,-4.5,30.34,NNW,327,0.0,0.0,80,0.00,,,0.00,Wunderground v.1.15,2013-01-26 11:50:00,
2013-01-26 05:55:00,0.2,-4.5,30.34,NNW,327,0.0,0.0,80,0.00,,,0.00,Wunderground v.1.15,2013-01-26 11:55:00,
2013-01-26 06:00:00,0.2,-4.5,30.34,NW,326,0.0,0.0,80,0.00,,,0.00,Wunderground v.1.15,2013-01-26 12:00:00,
2013-01-26 06:05:00,0.2,-4.5,30.34,NNW,327,0.0,0.0,80,0.00,,,0.00,Wunderground v.1.15,2013-01-26 12:05:00,
2013-01-26 06:10:00,0.3,-4.4,30.34,NNW,327,0.0,0.0,80,0.00,,,0.00,Wunderground v.1.15,2013-01-26 12:10:00,
2013-01-26 06:15:00,0.5,-4.2,30.34,NNW,327,1.0,3.0,80,0.00,,,0.00,Wunderground v.1.15,2013-01-26 12:15:00,
2013-01-26 06:20:00,0.6,-4.1,30.34,NW,326,0.0,3.0,80,0.00,,,0.00,Wunderground v.1.15,2013-01-26 12:20:00,
2013-01-26 06:25:00,0.6,-4.1,30.33,NW,326,0.0,1.0,80,0.00,,,0.00,Wunderground v.1.15,2013-01-26 12:25:00,
2013-01-26 06:30:00,0.5,-4.5,30.34,NNW,327,0.0,1.0,79,0.00,,,0.00,Wunderground v.1.15,2013-01-26 12:30:00,
2013-01-26 06:35:00,0.6,-4.4,30.34,NNW,327,0.0,0.0,79,0.00,,,0.00,Wunderground v.1.15,2013-01-26 12:35:00,
2013-01-26 06:40:00,0.6,-4.4,30.33,NNW,327,2.0,3.0,79,0.00,,,0.00,Wunderground v.1.15,2013-01-26 12:40:00,
2013-01-26 06:45:00,0.7,-4.0,30.33,NNW,327,3.0,4.0,80,0.00,,,0.00,Wunderground v.1.15,2013-01-26 12:45:00,
2013-01-26 06:51:00,0.9,-4.1,30.33,North,360,2.0,5.0,79,0.00,,,0.00,Wunderground v.1.15,2013-01-26 12:51:00,
2013-01-26 06:55:00,0.9,-4.1,30.33,North,5,3.0,4.0,79,0.00,,,0.00,Wunderground v.1.15,2013-01-26 12:55:00,
2013-01-26 07:01:00,0.9,-4.1,30.33,North,5,2.0,5.0,79,0.00,,,0.00,Wunderground v.1.15,2013-01-26 13:01:00,
2013-01-26 07:06:00,1.0,-3.7,30.33,North,10,3.0,4.0,80,0.00,,,0.00,Wunderground v.1.15,2013-01-26 13:06:00,
2013-01-26 07:11:00,1.1,-3.6,30.33,NNE,12,3.0,5.0,80,0.00,,,0.00,Wunderground v.1.15,2013-01-26 13:11:00,
2013-01-26 07:16:00,1.2,-3.8,30.33,NNE,24,4.0,6.0,79,0.00,,,0.00,Wunderground v.1.15,2013-01-26 13:16:00,
2013-01-26 07:21:00,1.2,-3.8,30.33,NNE,24,3.0,3.0,79,0.00,,,0.00,Wunderground v.1.15,2013-01-26 13:21:00,
2013-01-26 07:26:00,1.2,-3.8,30.33,NNE,24,3.0,3.0,79,0.00,,,0.00,Wunderground v.1.15,2013-01-26 13:26:00,
2013-01-26 07:31:00,1.3,-3.7,30.33,NNE,24,1.0,2.0,79,0.00,,,0.00,Wunderground v.1.15,2013-01-26 13:31:00,
2013-01-26 07:36:00,1.5,-3.5,30.33,NNE,24,2.0,5.0,79,0.00,,,0.00,Wunderground v.1.15,2013-01-26 13:36:00,
2013-01-26 07:41:00,1.6,-3.4,30.33,NNE,28,2.0,2.0,79,0.00,,,0.00,Wunderground v.1.15,2013-01-26 13:41:00,
2013-01-26 07:46:00,1.8,-3.2,30.33,NE,34,4.0,7.0,79,0.00,,,0.00,Wunderground v.1.15,2013-01-26 13:46:00,
2013-01-26 07:51:00,2.1,-2.9,30.33,ENE,69,7.0,7.0,79,0.00,,,0.00,Wunderground v.1.15,2013-01-26 13:51:00,
2013-01-26 07:56:00,2.5,-2.8,30.33,ENE,78,1.0,8.0,78,0.00,,,0.00,Wunderground v.1.15,2013-01-26 13:56:00,
2013-01-26 08:01:00,2.8,-2.5,30.34,East,83,6.0,6.0,78,0.00,,,0.00,Wunderground v.1.15,2013-01-26 14:01:00,
2013-01-26 08:06:00,2.8,-2.5,30.34,East,86,6.0,8.0,78,0.00,,,0.00,Wunderground v.1.15,2013-01-26 14:06:00,
2013-01-26 08:11:00,2.9,-2.4,30.33,East,87,2.0,5.0,78,0.00,,,0.00,Wunderground v.1.15,2013-01-26 14:11:00,
2013-01-26 08:16:00,3.0,-2.3,30.34,East,92,5.0,9.0,78,0.00,,,0.00,Wunderground v.1.15,2013-01-26 14:16:00,
2013-01-26 08:21:00,3.2,-2.4,30.33,East,96,8.0,8.0,77,0.00,,,0.00,Wunderground v.1.15,2013-01-26 14:21:00,
2013-01-26 08:26:00,3.8,-1.5,30.33,East,97,7.0,8.0,78,0.00,,,0.00,Wunderground v.1.15,2013-01-26 14:26:00,
2013-01-26 08:31:00,4.0,-1.6,30.33,East,101,1.0,8.0,77,0.00,,,0.00,Wunderground v.1.15,2013-01-26 14:31:00,
2013-01-26 08:36:00,4.4,-1.2,30.32,ESE,113,9.0,10.0,77,0.00,,,0.00,Wunderground v.1.15,2013-01-26 14:36:00,
2013-01-26 08:41:00,4.9,-0.7,30.32,ESE,117,4.0,7.0,77,0.00,,,0.00,Wunderground v.1.15,2013-01-26 14:41:00,
2013-01-26 08:46:00,5.4,-0.2,30.32,ESE,117,5.0,10.0,77,0.00,,,0.00,Wunderground v.1.15,2013-01-26 14:46:00,
2013-01-26 08:51:00,5.5,-0.4,30.32,ESE,119,5.0,10.0,76,0.00,,,0.00,Wunderground v.1.15,2013-01-26 14:51:00,
2013-01-26 08:57:00,5.5,-0.4,30.32,SE,125,4.0,11.0,76,0.00,,,0.00,Wunderground v.1.15,2013-01-26 14:57:00,
2013-01-26 09:02:00,6.0,0.3,30.31,SE,128,10.0,10.0,77,0.00,,,0.00,Wunderground v.1.15,2013-01-26 15:02:00,
2013-01-26 09:07:00,5.8,-0.1,30.32,SE,131,5.0,10.0,76,0.00,,,0.00,Wunderground v.1.15,2013-01-26 15:07:00,
2013-01-26 09:12:00,6.0,0.1,30.32,SE,132,7.0,7.0,76,0.00,,,0.00,Wunderground v.1.15,2013-01-26 15:12:00,
2013-01-26 09:17:00,6.1,0.2,30.32,SE,132,9.0,9.0,76,0.00,,,0.00,Wunderground v.1.15,2013-01-26 15:17:00,
2013-01-26 09:22:00,6.5,0.5,30.32,SE,132,5.0,7.0,76,0.00,,,0.00,Wunderground v.1.15,2013-01-26 15:22:00,
2013-01-26 09:27:00,6.8,0.8,30.32,SE,132,7.0,9.0,76,0.00,,,0.00,Wunderground v.1.15,2013-01-26 15:27:00,
2013-01-26 09:32:00,7.1,1.1,30.32,SE,132,1.0,7.0,76,0.00,,,0.00,Wunderground v.1.15,2013-01-26 15:32:00,
2013-01-26 09:37:00,7.3,1.0,30.32,SE,132,4.0,9.0,75,0.00,,,0.00,Wunderground v.1.15,2013-01-26 15:37:00,
2013-01-26 09:42:00,7.7,1.4,30.32,SE,139,3.0,9.0,75,0.00,,,0.00,Wunderground v.1.15,2013-01-26 15:42:00,
2013-01-26 09:47:00,8.4,2.1,30.32,SE,140,8.0,9.0,75,0.00,,,0.00,Wunderground v.1.15,2013-01-26 15:47:00,
2013-01-26 09:52:00,8.6,2.3,30.32,SE,142,7.0,10.0,75,0.00,,,0.00,Wunderground v.1.15,2013-01-26 15:52:00,
2013-01-26 09:57:00,8.9,2.3,30.32,SE,142,6.0,10.0,74,0.00,,,0.00,Wunderground v.1.15,2013-01-26 15:57:00,
2013-01-26 10:02:00,9.2,2.6,30.32,SE,142,9.0,10.0,74,0.00,,,0.00,Wunderground v.1.15,2013-01-26 16:02:00,
2013-01-26 10:07:00,9.6,2.7,30.32,SE,143,5.0,10.0,73,0.00,,,0.00,Wunderground v.1.15,2013-01-26 16:07:00,
2013-01-26 10:12:00,9.9,2.7,30.31,SSE,157,6.0,13.0,72,0.00,,,0.00,Wunderground v.1.15,2013-01-26 16:12:00,
2013-01-26 10:17:00,10.0,2.8,30.31,SE,146,7.0,14.0,72,0.00,,,0.00,Wunderground v.1.15,2013-01-26 16:17:00,
2013-01-26 10:22:00,10.8,3.5,30.31,SE,144,10.0,11.0,72,0.00,,,0.00,Wunderground v.1.15,2013-01-26 16:22:00,
2013-01-26 10:27:00,11.3,3.7,30.31,SE,144,7.0,12.0,71,0.00,,,0.00,Wunderground v.1.15,2013-01-26 16:27:00,
2013-01-26 10:32:00,11.3,3.7,30.31,SE,140,4.0,10.0,71,0.00,,,0.00,Wunderground v.1.15,2013-01-26 16:32:00,
2013-01-26 10:37:00,11.5,3.6,30.31,SSE,148,10.0,15.0,70,0.00,,,0.00,Wunderground v.1.15,2013-01-26 16:37:00,
2013-01-26 10:42:00,11.8,3.9,30.31,SSE,148,5.0,11.0,70,0.00,,,0.00,Wunderground v.1.15,2013-01-26 16:42:00,
2013-01-26 10:47:00,12.5,4.3,30.31,SE,138,9.0,13.0,69,0.00,,,0.00,Wunderground v.1.15,2013-01-26 16:47:00,
2013-01-26 10:52:00,12.8,4.2,30.31,SE,146,5.0,13.0,68,0.00,,,0.00,Wunderground v.1.15,2013-01-26 16:52:00,
2013-01-26 10:57:00,13.2,4.6,30.31,SE,138,9.0,13.0,68,0.00,,,0.00,Wunderground v.1.15,2013-01-26 16:57:00,
2013-01-26 11:02:00,13.3,4.7,30.31,SE,130,9.0,14.0,68,0.00,,,0.00,Wunderground v.1.15,2013-01-26 17:02:00,
2013-01-26 11:07:00,13.7,5.1,30.30,SE,136,8.0,14.0,68,0.00,,,0.00,Wunderground v.1.15,2013-01-26 17:07:00,
2013-01-26 11:12:00,13.7,4.8,30.30,SE,138,8.0,13.0,67,0.00,,,0.00,Wunderground v.1.15,2013-01-26 17:12:00,
2013-01-26 11:17:00,14.2,5.2,30.30,SE,137,5.0,14.0,67,0.00,,,0.00,Wunderground v.1.15,2013-01-26 17:17:00,
2013-01-26 11:22:00,14.4,5.4,30.30,SE,133,8.0,10.0,67,0.00,,,0.00,Wunderground v.1.15,2013-01-26 17:22:00,
2013-01-26 11:27:00,14.8,5.8,30.29,SE,145,12.0,16.0,67,0.00,,,0.00,Wunderground v.1.15,2013-01-26 17:27:00,
2013-01-26 11:32:00,15.7,6.3,30.29,SE,141,7.0,13.0,66,0.00,,,0.00,Wunderground v.1.15,2013-01-26 17:32:00,
2013-01-26 11:37:00,16.0,6.6,30.29,SE,140,7.0,13.0,66,0.00,,,0.00,Wunderground v.1.15,2013-01-26 17:37:00,
2013-01-26 11:42:00,16.7,7.3,30.29,SE,141,11.0,13.0,66,0.00,,,0.00,Wunderground v.1.15,2013-01-26 17:42:00,
2013-01-26 11:47:00,17.1,7.0,30.29,SE,140,10.0,14.0,64,0.00,,,0.00,Wunderground v.1.15,2013-01-26 17:47:00,
2013-01-26 11:52:00,17.6,7.5,30.28,SSE,150,15.0,15.0,64,0.00,,,0.00,Wunderground v.1.15,2013-01-26 17:52:00,
2013-01-26 11:58:00,17.7,7.2,30.28,SE,136,10.0,15.0,63,0.00,,,0.00,Wunderground v.1.15,2013-01-26 17:58:00,
2013-01-26 12:03:00,18.5,8.0,30.28,SSE,163,12.0,14.0,63,0.00,,,0.00,Wunderground v.1.15,2013-01-26 18:03:00,
2013-01-26 12:08:00,18.2,7.3,30.28,SE,145,8.0,17.0,62,0.00,,,0.00,Wunderground v.1.15,2013-01-26 18:08:00,
2013-01-26 12:13:00,18.2,7.7,30.27,SSE,148,8.0,16.0,63,0.00,,,0.00,Wunderground v.1.15,2013-01-26 18:13:00,
2013-01-26 12:18:00,18.3,7.8,30.27,SSE,149,11.0,16.0,63,0.00,,,0.00,Wunderground v.1.15,2013-01-26 18:18:00,
2013-01-26 12:23:00,18.5,8.3,30.26,SE,142,13.0,13.0,64,0.00,,,0.00,Wunderground v.1.15,2013-01-26 18:23:00,
2013-01-26 12:28:00,18.7,8.5,30.26,SE,142,10.0,13.0,64,0.00,,,0.00,Wunderground v.1.15,2013-01-26 18:28:00,
2013-01-26 12:33:00,18.8,8.3,30.26,SE,144,9.0,13.0,63,0.00,,,0.00,Wunderground v.1.15,2013-01-26 18:33:00,
2013-01-26 12:38:00,19.3,9.1,30.25,SE,142,5.0,13.0,64,0.00,,,0.00,Wunderground v.1.15,2013-01-26 18:38:00,
2013-01-26 12:43:00,19.5,8.9,30.25,SSE,149,10.0,13.0,63,0.00,,,0.00,Wunderground v.1.15,2013-01-26 18:43:00,
2013-01-26 12:48:00,19.7,9.1,30.24,SSE,148,12.0,16.0,63,0.00,,,0.00,Wunderground v.1.15,2013-01-26 18:48:00,
2013-01-26 12:53:00,20.3,10.1,30.23,SE,143,7.0,10.0,64,0.00,,,0.00,Wunderground v.1.15,2013-01-26 18:53:00,
2013-01-26 12:58:00,21.3,10.7,30.23,SSE,157,11.0,15.0,63,0.00,,,0.00,Wunderground v.1.15,2013-01-26 18:58:00,
2013-01-26 13:03:00,21.9,10.9,30.22,SSE,148,10.0,12.0,62,0.00,,,0.00,Wunderground v.1.15,2013-01-26 19:03:00,
2013-01-26 13:08:00,22.7,11.3,30.22,SE,142,8.0,17.0,61,0.00,,,0.00,Wunderground v.1.15,2013-01-26 19:08:00,
2013-01-26 13:13:00,22.9,11.4,30.21,SSE,155,12.0,14.0,61,0.00,,,0.00,Wunderground v.1.15,2013-01-26 19:13:00,
2013-01-26 13:18:00,23.5,12.0,30.21,SSE,151,6.0,15.0,61,0.00,,,0.00,Wunderground v.1.15,2013-01-26 19:18:00,
2013-01-26 13:23:00,24.3,12.0,30.20,SSE,152,17.0,17.0,59,0.00,,,0.00,Wunderground v.1.15,2013-01-26 19:23:00,
2013-01-26 13:28:00,24.6,12.3,30.20,SSE,153,10.0,17.0,59,0.00,,,0.00,Wunderground v.1.15,2013-01-26 19:28:00,
2013-01-26 13:33:00,24.4,12.1,30.20,SSE,153,11.0,13.0,59,0.00,,,0.00,Wunderground v.1.15,2013-01-26 19:33:00,
2013-01-26 13:38:00,24.5,12.2,30.20,SE,142,12.0,15.0,59,0.00,,,0.00,Wunderground v.1.15,2013-01-26 19:38:00,
2013-01-26 13:43:00,24.3,12.0,30.20,SSE,160,7.0,13.0,59,0.00,,,0.00,Wunderground v.1.15,2013-01-26 19:43:00,
2013-01-26 13:48:00,24.4,12.1,30.20,SSE,154,11.0,17.0,59,0.00,,,0.00,Wunderground v.1.15,2013-01-26 19:48:00,
2013-01-26 13:53:00,24.3,12.4,30.20,SSE,162,12.0,14.0,60,0.00,,,0.00,Wunderground v.1.15,2013-01-26 19:53:00,
2013-01-26 13:58:00,24.7,12.8,30.19,SSE,160,6.0,18.0,60,0.00,,,0.00,Wunderground v.1.15,2013-01-26 19:58:00,
2013-01-26 14:03:00,25.1,13.2,30.19,SSE,167,9.0,16.0,60,0.00,,,0.00,Wunderground v.1.15,2013-01-26 20:03:00,
2013-01-26 14:08:00,25.4,13.4,30.18,SSE,149,6.0,16.0,60,0.00,,,0.00,Wunderground v.1.15,2013-01-26 20:08:00,
2013-01-26 14:13:00,25.8,13.8,30.18,SSE,157,15.0,15.0,60,0.00,,,0.00,Wunderground v.1.15,2013-01-26 20:13:00,
2013-01-26 14:18:00,25.9,13.9,30.17,SSE,162,9.0,19.0,60,0.00,,,0.00,Wunderground v.1.15,2013-01-26 20:18:00,
2013-01-26 14:23:00,26.2,14.2,30.17,SSE,154,14.0,15.0,60,0.00,,,0.00,Wunderground v.1.15,2013-01-26 20:23:00,
2013-01-26 14:28:00,26.3,14.3,30.17,South,169,9.0,17.0,60,0.00,,,0.00,Wunderground v.1.15,2013-01-26 20:28:00,
2013-01-26 14:33:00,26.7,14.7,30.17,SSE,159,9.0,16.0,60,0.00,,,0.00,Wunderground v.1.15,2013-01-26 20:33:00,
2013-01-26 14:38:00,27.1,15.0,30.17,SSE,167,9.0,16.0,60,0.00,,,0.00,Wunderground v.1.15,2013-01-26 20:38:00,
2013-01-26 14:43:00,27.3,15.2,30.16,South,177,17.0,17.0,60,0.00,,,0.00,Wunderground v.1.15,2013-01-26 20:43:00,
2013-01-26 14:48:00,27.5,15.4,30.16,South,169,8.0,17.0,60,0.00,,,0.00,Wunderground v.1.15,2013-01-26 20:48:00,
2013-01-26 14:53:00,27.6,15.5,30.16,South,171,11.0,14.0,60,0.00,,,0.00,Wunderground v.1.15,2013-01-26 20:53:00,
2013-01-26 14:58:00,27.5,15.4,30.16,SSE,159,10.0,16.0,60,0.00,,,0.00,Wunderground v.1.15,2013-01-26 20:58:00,
2013-01-26 15:03:00,27.5,15.4,30.16,South,171,7.0,15.0,60,0.00,,,0.00,Wunderground v.1.15,2013-01-26 21:03:00,
2013-01-26 15:08:00,27.4,14.9,30.15,South,170,15.0,17.0,59,0.00,,,0.00,Wunderground v.1.15,2013-01-26 21:08:00,
2013-01-26 15:13:00,27.5,15.4,30.15,SSE,152,15.0,19.0,60,0.00,,,0.00,Wunderground v.1.15,2013-01-26 21:13:00,
2013-01-26 15:18:00,27.4,15.3,30.15,SSE,156,16.0,19.0,60,0.00,,,0.00,Wunderground v.1.15,2013-01-26 21:18:00,
2013-01-26 15:24:00,27.7,15.6,30.15,SSE,164,11.0,16.0,60,0.00,,,0.00,Wunderground v.1.15,2013-01-26 21:24:00,
2013-01-26 15:29:00,27.7,15.6,30.15,SSE,163,11.0,16.0,60,0.00,,,0.00,Wunderground v.1.15,2013-01-26 21:29:00,
2013-01-26 15:34:00,27.7,15.6,30.14,SSE,156,16.0,18.0,60,0.00,,,0.00,Wunderground v.1.15,2013-01-26 21:34:00,
2013-01-26 15:39:00,27.9,15.8,30.14,SE,146,12.0,19.0,60,0.00,,,0.00,Wunderground v.1.15,2013-01-26 21:39:00,
2013-01-26 15:44:00,27.9,15.8,30.14,SSE,160,10.0,17.0,60,0.00,,,0.00,Wunderground v.1.15,2013-01-26 21:44:00,
2013-01-26 15:49:00,28.1,16.0,30.14,SSE,159,8.0,22.0,60,0.00,,,0.00,Wunderground v.1.15,2013-01-26 21:49:00,
2013-01-26 15:54:00,28.3,16.6,30.14,SSE,150,11.0,14.0,61,0.00,,,0.00,Wunderground v.1.15,2013-01-26 21:54:00,
2013-01-26 15:59:00,28.3,16.2,30.14,SSE,153,13.0,16.0,60,0.00,,,0.00,Wunderground v.1.15,2013-01-26 21:59:00,
2013-01-26 16:04:00,28.3,16.2,30.14,SSE,150,7.0,17.0,60,0.00,,,0.00,Wunderground v.1.15,2013-01-26 22:04:00,
2013-01-26 16:09:00,28.3,16.6,30.13,SSE,152,13.0,17.0,61,0.00,,,0.00,Wunderground v.1.15,2013-01-26 22:09:00,
2013-01-26 16:14:00,28.4,16.3,30.13,SSE,153,8.0,17.0,60,0.00,,,0.00,Wunderground v.1.15,2013-01-26 22:14:00,
2013-01-26 16:19:00,28.5,16.4,30.13,SSE,147,10.0,17.0,60,0.00,,,0.00,Wunderground v.1.15,2013-01-26 22:19:00,
2013-01-26 16:24:00,28.5,16.7,30.14,SSE,148,10.0,12.0,61,0.00,,,0.00,Wunderground v.1.15,2013-01-26 22:24:00,
2013-01-26 16:29:00,28.4,16.3,30.13,SSE,150,10.0,14.0,60,0.00,,,0.00,Wunderground v.1.15,2013-01-26 22:29:00,
2013-01-26 16:34:00,28.4,16.7,30.13,SSE,149,10.0,15.0,61,0.00,,,0.00,Wunderground v.1.15,2013-01-26 22:34:00,
2013-01-26 16:39:00,28.4,16.3,30.13,SSE,148,16.0,16.0,60,0.00,,,0.00,Wunderground v.1.15,2013-01-26 22:39:00,
2013-01-26 16:44:00,28.4,16.7,30.13,SSE,150,10.0,16.0,61,0.00,,,0.00,Wunderground v.1.15,2013-01-26 22:44:00,
2013-01-26 16:49:00,28.4,16.7,30.13,SSE,149,9.0,16.0,61,0.00,,,0.00,Wunderground v.1.15,2013-01-26 22:49:00,
2013-01-26 16:54:00,28.4,16.7,30.13,SSE,149,9.0,12.0,61,0.00,,,0.00,Wunderground v.1.15,2013-01-26 22:54:00,
2013-01-26 16:59:00,28.3,16.9,30.13,SSE,151,7.0,12.0,62,0.00,,,0.00,Wunderground v.1.15,2013-01-26 22:59:00,
2013-01-26 17:04:00,28.3,16.6,30.13,SSE,150,8.0,10.0,61,0.00,,,0.00,Wunderground v.1.15,2013-01-26 23:04:00,
2013-01-26 17:09:00,28.4,17.0,30.14,SSE,149,10.0,11.0,62,0.00,,,0.00,Wunderground v.1.15,2013-01-26 23:09:00,
2013-01-26 17:14:00,28.3,16.9,30.14,SSE,150,1.0,8.0,62,0.00,,,0.00,Wunderground v.1.15,2013-01-26 23:14:00,
2013-01-26 17:19:00,28.3,16.6,30.14,SSE,150,8.0,11.0,61,0.00,,,0.00,Wunderground v.1.15,2013-01-26 23:19:00,
2013-01-26 17:24:00,28.2,16.8,30.13,SSE,151,10.0,10.0,62,0.00,,,0.00,Wunderground v.1.15,2013-01-26 23:24:00,
2013-01-26 17:29:00,28.1,16.7,30.13,SSE,150,7.0,11.0,62,0.00,,,0.00,Wunderground v.1.15,2013-01-26 23:29:00,
2013-01-26 17:34:00,28.1,16.7,30.13,SSE,148,9.0,12.0,62,0.00,,,0.00,Wunderground v.1.15,2013-01-26 23:34:00,
2013-01-26 17:39:00,28.0,16.6,30.13,SE,146,5.0,12.0,62,0.00,,,0.00,Wunderground v.1.15,2013-01-26 23:39:00,
2013-01-26 17:44:00,27.9,16.9,30.13,SE,146,7.0,10.0,63,0.00,,,0.00,Wunderground v.1.15,2013-01-26 23:44:00,
2013-01-26 17:49:00,27.9,16.6,30.13,SE,142,10.0,12.0,62,0.00,,,0.00,Wunderground v.1.15,2013-01-26 23:49:00,
2013-01-26 17:54:00,28.0,16.6,30.13,SE,146,8.0,13.0,62,0.00,,,0.00,Wunderground v.1.15,2013-01-26 23:54:00,
2013-01-26 17:59:00,28.0,16.6,30.13,SSE,153,8.0,14.0,62,0.00,,,0.00,Wunderground v.1.15,2013-01-26 23:59:00,
2013-01-26 18:04:00,27.9,16.6,30.12,SSE,150,4.0,13.0,62,0.00,,,0.00,Wunderground v.1.15,2013-01-27 00:04:00,
2013-01-26 18:09:00,27.9,16.6,30.12,SSE,149,4.0,15.0,62,0.00,,,0.00,Wunderground v.1.15,2013-01-27 00:09:00,
2013-01-26 18:14:00,28.0,16.6,30.12,SSE,147,11.0,13.0,62,0.00,,,0.00,Wunderground v.1.15,2013-01-27 00:14:00,
2013-01-26 18:19:00,28.1,16.7,30.12,SSE,148,9.0,13.0,62,0.00,,,0.00,Wunderground v.1.15,2013-01-27 00:19:00,
2013-01-26 18:24:00,28.0,16.6,30.12,SSE,148,6.0,11.0,62,0.00,,,0.00,Wunderground v.1.15,2013-01-27 00:24:00,
2013-01-26 18:29:00,28.1,16.7,30.12,SSE,157,5.0,13.0,62,0.00,,,0.00,Wunderground v.1.15,2013-01-27 00:29:00,
2013-01-26 18:34:00,28.2,16.8,30.13,SSE,150,11.0,13.0,62,0.00,,,0.00,Wunderground v.1.15,2013-01-27 00:34:00,
2013-01-26 18:40:00,28.2,16.8,30.12,SSE,148,9.0,14.0,62,0.00,,,0.00,Wunderground v.1.15,2013-01-27 00:40:00,
2013-01-26 18:45:00,28.2,16.8,30.12,SSE,148,7.0,13.0,62,0.00,,,0.00,Wunderground v.1.15,2013-01-27 00:45:00,
2013-01-26 18:50:00,28.4,17.4,30.12,SSE,149,9.0,13.0,63,0.00,,,0.00,Wunderground v.1.15,2013-01-27 00:50:00,
2013-01-26 18:55:00,28.4,17.4,30.12,SSE,149,7.0,11.0,63,0.00,,,0.00,Wunderground v.1.15,2013-01-27 00:55:00,
2013-01-26 19:00:00,28.5,17.5,30.12,SSE,154,7.0,12.0,63,0.00,,,0.00,Wunderground v.1.15,2013-01-27 01:00:00,
2013-01-26 19:05:00,28.4,17.4,30.12,SSE,153,7.0,11.0,63,0.00,,,0.00,Wunderground v.1.15,2013-01-27 01:05:00,
2013-01-26 19:10:00,28.3,17.3,30.12,SSE,150,7.0,12.0,63,0.00,,,0.00,Wunderground v.1.15,2013-01-27 01:10:00,
2013-01-26 19:15:00,28.0,17.0,30.12,SSE,148,7.0,10.0,63,0.00,,,0.00,Wunderground v.1.15,2013-01-27 01:15:00,
2013-01-26 19:20:00,28.0,17.0,30.12,SSE,147,10.0,12.0,63,0.00,,,0.00,Wunderground v.1.15,2013-01-27 01:20:00,
2013-01-26 19:25:00,27.9,16.9,30.13,SSE,148,7.0,12.0,63,0.00,,,0.00,Wunderground v.1.15,2013-01-27 01:25:00,
2013-01-26 19:30:00,28.0,17.0,30.13,SSE,148,7.0,12.0,63,0.00,,,0.00,Wunderground v.1.15,2013-01-27 01:30:00,
2013-01-26 19:35:00,27.9,16.9,30.12,SSE,148,8.0,11.0,63,0.00,,,0.00,Wunderground v.1.15,2013-01-27 01:35:00,
2013-01-26 19:40:00,27.7,17.1,30.13,SSE,149,7.0,11.0,64,0.00,,,0.00,Wunderground v.1.15,2013-01-27 01:40:00,
2013-01-26 19:45:00,27.5,16.9,30.13,SSE,149,7.0,12.0,64,0.00,,,0.00,Wunderground v.1.15,2013-01-27 01:45:00,
2013-01-26 19:50:00,27.4,16.8,30.13,SSE,148,9.0,12.0,64,0.00,,,0.00,Wunderground v.1.15,2013-01-27 01:50:00,
2013-01-26 19:55:00,27.1,16.5,30.13,SSE,148,2.0,11.0,64,0.00,,,0.00,Wunderground v.1.15,2013-01-27 01:55:00,
2013-01-26 20:00:00,26.8,16.6,30.13,SSE,148,6.0,11.0,65,0.00,,,0.00,Wunderground v.1.15,2013-01-27 02:00:00,
2013-01-26 20:05:00,26.6,16.4,30.13,SSE,148,4.0,7.0,65,0.00,,,0.00,Wunderground v.1.15,2013-01-27 02:05:00,
2013-01-26 20:10:00,26.5,16.3,30.14,SSE,148,6.0,8.0,65,0.00,,,0.00,Wunderground v.1.15,2013-01-27 02:10:00,
2013-01-26 20:15:00,26.4,16.2,30.13,SSE,148,6.0,8.0,65,0.00,,,0.00,Wunderground v.1.15,2013-01-27 02:15:00,
2013-01-26 20:20:00,26.4,16.2,30.13,SSE,148,3.0,8.0,65,0.00,,,0.00,Wunderground v.1.15,2013-01-27 02:20:00,
2013-01-26 20:25:00,26.4,16.2,30.13,SSE,148,4.0,8.0,65,0.00,,,0.00,Wunderground v.1.15,2013-01-27 02:25:00,
2013-01-26 20:30:00,26.5,16.3,30.13,SSE,150,5.0,9.0,65,0.00,,,0.00,Wunderground v.1.15,2013-01-27 02:30:00,
2013-01-26 20:35:00,26.1,15.9,30.13,SSE,150,3.0,7.0,65,0.00,,,0.00,Wunderground v.1.15,2013-01-27 02:35:00,
2013-01-26 20:40:00,26.2,16.4,30.13,SSE,150,6.0,9.0,66,0.00,,,0.00,Wunderground v.1.15,2013-01-27 02:40:00,
2013-01-26 20:45:00,26.1,16.3,30.13,SSE,149,6.0,10.0,66,0.00,,,0.00,Wunderground v.1.15,2013-01-27 02:45:00,
2013-01-26 20:50:00,26.1,15.9,30.13,SSE,149,5.0,10.0,65,0.00,,,0.00,Wunderground v.1.15,2013-01-27 02:50:00,
2013-01-26 20:55:00,26.2,16.0,30.13,SSE,150,10.0,12.0,65,0.00,,,0.00,Wunderground v.1.15,2013-01-27 02:55:00,
2013-01-26 21:00:00,26.2,16.0,30.13,SSE,148,7.0,12.0,65,0.00,,,0.00,Wunderground v.1.15,2013-01-27 03:00:00,
2013-01-26 21:05:00,26.5,16.3,30.12,SSE,149,6.0,12.0,65,0.00,,,0.00,Wunderground v.1.15,2013-01-27 03:05:00,
2013-01-26 21:10:00,26.3,16.1,30.12,SSE,150,10.0,13.0,65,0.00,,,0.00,Wunderground v.1.15,2013-01-27 03:10:00,
2013-01-26 21:15:00,26.3,16.1,30.12,SSE,152,7.0,13.0,65,0.00,,,0.00,Wunderground v.1.15,2013-01-27 03:15:00,
2013-01-26 21:20:00,26.2,16.0,30.12,SSE,151,12.0,13.0,65,0.00,,,0.00,Wunderground v.1.15,2013-01-27 03:20:00,
2013-01-26 21:25:00,26.2,16.0,30.12,SSE,149,10.0,14.0,65,0.00,,,0.00,Wunderground v.1.15,2013-01-27 03:25:00,
2013-01-26 21:30:00,26.2,16.0,30.12,SSE,153,11.0,16.0,65,0.00,,,0.00,Wunderground v.1.15,2013-01-27 03:30:00,
2013-01-26 21:35:00,26.1,15.6,30.11,SSE,148,10.0,14.0,64,0.00,,,0.00,Wunderground v.1.15,2013-01-27 03:35:00,
2013-01-26 21:40:00,26.0,15.8,30.11,SSE,149,9.0,15.0,65,0.00,,,0.00,Wunderground v.1.15,2013-01-27 03:40:00,
2013-01-26 21:46:00,25.9,15.7,30.11,SSE,149,12.0,12.0,65,0.00,,,0.00,Wunderground v.1.15,2013-01-27 03:46:00,
2013-01-26 21:51:00,25.9,15.7,30.11,SSE,159,11.0,16.0,65,0.00,,,0.00,Wunderground v.1.15,2013-01-27 03:51:00,
2013-01-26 21:56:00,25.7,15.6,30.10,SSE,149,10.0,14.0,65,0.00,,,0.00,Wunderground v.1.15,2013-01-27 03:56:00,
2013-01-26 22:01:00,25.6,15.5,30.10,SSE,150,15.0,15.0,65,0.00,,,0.00,Wunderground v.1.15,2013-01-27 04:01:00,
2013-01-26 22:06:00,25.6,15.5,30.10,SE,144,9.0,17.0,65,0.00,,,0.00,Wunderground v.1.15,2013-01-27 04:06:00,
2013-01-26 22:11:00,25.6,15.5,30.10,SSE,150,7.0,10.0,65,0.00,,,0.00,Wunderground v.1.15,2013-01-27 04:11:00,
2013-01-26 22:16:00,25.5,15.4,30.10,SE,146,11.0,17.0,65,0.00,,,0.00,Wunderground v.1.15,2013-01-27 04:16:00,
2013-01-26 22:21:00,25.4,15.6,30.10,SSE,153,8.0,10.0,66,0.00,,,0.00,Wunderground v.1.15,2013-01-27 04:21:00,
2013-01-26 22:26:00,25.3,15.5,30.09,SSE,153,10.0,16.0,66,0.00,,,0.00,Wunderground v.1.15,2013-01-27 04:26:00,
2013-01-26 22:31:00,25.4,15.6,30.09,SSE,149,9.0,10.0,66,0.00,,,0.00,Wunderground v.1.15,2013-01-27 04:31:00,
2013-01-26 22:36:00,25.5,15.7,30.09,SSE,151,7.0,16.0,66,0.00,,,0.00,Wunderground v.1.15,2013-01-27 04:36:00,
2013-01-26 22:41:00,25.7,15.9,30.09,SSE,155,11.0,11.0,66,0.00,,,0.00,Wunderground v.1.15,2013-01-27 04:41:00,
2013-01-26 22:46:00,25.8,15.6,30.09,SE,146,8.0,18.0,65,0.00,,,0.00,Wunderground v.1.15,2013-01-27 04:46:00,
2013-01-26 22:51:00,25.8,15.6,30.09,SSE,150,12.0,15.0,65,0.00,,,0.00,Wunderground v.1.15,2013-01-27 04:51:00,
2013-01-26 22:56:00,25.8,15.6,30.09,SSE,157,6.0,15.0,65,0.00,,,0.00,Wunderground v.1.15,2013-01-27 04:56:00,
2013-01-26 23:00:00,25.8,16.0,30.09,SSE,149,11.0,16.0,66,0.00,,,0.00,Wunderground v.1.15,2013-01-27 05:00:00,
2013-01-26 23:02:00,25.7,15.9,30.09,SSE,148,5.0,13.0,66,0.00,,,0.00,Wunderground v.1.15,2013-01-27 05:02:00,
2013-01-26 23:07:00,25.8,16.0,30.09,SSE,155,8.0,15.0,66,0.00,,,0.00,Wunderground v.1.15,2013-01-27 05:07:00,
2013-01-26 23:12:00,25.7,15.9,30.09,SSE,150,11.0,14.0,66,0.00,,,0.00,Wunderground v.1.15,2013-01-27 05:12:00,
2013-01-26 23:17:00,25.6,15.8,30.10,SSE,154,5.0,14.0,66,0.00,,,0.00,Wunderground v.1.15,2013-01-27 05:17:00,
2013-01-26 23:22:00,25.8,16.0,30.09,SSE,149,8.0,17.0,66,0.00,,,0.00,Wunderground v.1.15,2013-01-27 05:22:00,
2013-01-26 23:27:00,25.5,15.7,30.10,SE,145,7.0,17.0,66,0.00,,,0.00,Wunderground v.1.15,2013-01-27 05:27:00,
2013-01-26 23:32:00,25.5,15.7,30.09,SSE,150,9.0,14.0,66,0.00,,,0.00,Wunderground v.1.15,2013-01-27 05:32:00,
2013-01-26 23:37:00,25.3,15.5,30.09,SSE,153,8.0,17.0,66,0.00,,,0.00,Wunderground v.1.15,2013-01-27 05:37:00,
2013-01-26 23:42:00,25.2,15.8,30.09,SSE,149,5.0,10.0,67,0.00,,,0.00,Wunderground v.1.15,2013-01-27 05:42:00,
2013-01-26 23:47:00,25.2,15.8,30.09,SSE,159,16.0,16.0,67,0.00,,,0.00,Wunderground v.1.15,2013-01-27 05:47:00,
2013-01-26 23:52:00,25.2,15.8,30.09,SE,144,12.0,14.0,67,0.00,,,0.00,Wunderground v.1.15,2013-01-27 05:52:00,
2013-01-26 23:57:00,25.1,16.0,30.09,SSE,149,7.0,14.0,68,0.00,,,0.00,Wunderground v.1.15,2013-01-27 05:57:00,